STARLINK-3106, 49164

Orbit data source: Space-Track

STARLINK-3106, 49164 is a payload satellite owned by SpaceX/Seattle (US) in LEO that was launched on Tue, 14 Sep 2021 UTC via an FALCON 9 launch vehicle from the Air Force Western Test Range (AFWTR). Payload-class satellites include a variety of spacecraft equipped with specific instruments for various scientific and technological missions. These include communications satellites like Starlink; space stations such as the ISS; scientific satellites like the Hubble; Earth observation satellites from companies like Planet Labs, Umbra, and HawkEye 360; GPS; miniature CubeSats for education and research; and military/defense satellites.

Loading next visibility...
Identifier
49164, 2021-082AL
Orbit
LEO
Country
Flag of USUS
Related business
Manufacturer
SpaceX/Seattle
Mission
Operational Commercial Communications
Bus & Motor
STARLINK, Unknown motor
Mass
297 kg wet, ~275 kg dry
Launch date (UTC)
2021-09-14 (5 years ago)
Launch vehicle
FALCON 9
Launch site
Air Force Western Test Range (AFWTR)
Object type
Payload
Rocket body
Debris
Shape & HBR
Box + 1 Pan, 10.1 m
Radar Cross Section
13.562 m², Large (>1 m²)

Expand to show TLE details & history
Last TLE update: 12 hours ago

TLE from 12 hours ago
0 STARLINK-3106
1 49164U 21082AL  26125.45135314  .00000761  00000-0  71595-4 0  9994
2 49164  69.9992 131.3376 0003215 266.9433  93.1359 14.98331688256136
Epoch: 2026-05-05T10:49Z
TLE epoch observation values (Epoch: 2026-05-05T10:49:56.911Z)
Latitude
0.00006°
Longitude
105.52449°
Altitude
574.597 km
Speed
7.574 km/s
True Right ascension
08h 45m 21s
True Declination
0° 00' 00"
Sunlit
Object was in daylight at epoch
Visualization orbit readout
Latitude
Unknown
Longitude
Unknown
Altitude
Unknown
Speed
Unknown
Apparent Right ascension
Unknown
Apparent Declination
Unknown
Sunlit
N/A
Visualization observer readout
Local Sidereal Time
07:14:15
Azimuth
Unknown
Elevation
Unknown
Doppler factor
Unknown
Orbital elements
Apogee altitude
572.233 km
Perigee altitude
567.765 km
Semi-major axis
6,948.136 km
Eccentricity
0.00032
Inclination
69.9992°
RAAN
131.3376°
Arg. of periapsis
266.9433°
True anomaly
93.17269°
Mean anomaly
93.1359°
Eccentric anomaly
93.15429°
Mean motion
3.74749 °/min
Orbital period
96.06 mins
BSTAR
0.000071595
Loading maneuver chart data...
Computing Atmospheric mass density...
Loading historical data...
Loading historical data...
Loading historical data...
Loading historical data...
Loading historical data...
Loading historical data...
Loading historical data...

Documentation

Showing up to 5 results
|